[[{"header":{"parameterUnit":"m.s-1","parameterCategory":1,"la1":30.2991,"la2":30.254,"lo1":-89.0895,"lo2":-89.0444,"dy":0.0017,"dx":0.0017,"nx":28,"ny":28,"refTime":"2024-05-08T21:00:00:Z","depth":0,"parameterNumber":2,"parameterNumberName":"U-component_of_WINDS"},"data":[0,0,0,0,0,0,0,0,0,0,0,0,0,0,0,0,0,0,0,0,0,0,0,0,0,0,0,0,0,0,0,0,0,0,0,0,0,0,0,0,0,0,0,0,0,0,0,0,0,0,0,0,0,0,0,0,0,0,-1.4377,-1.4377,0,-1.4373,-1.4373,-1.4373,-1.4356,-1.4356,-1.4356,-1.4355,-1.4351,-1.4351,-1.4351,0,0,0,0,0,0,0,0,0,0,0,0,0,-1.437,-1.437,-1.4377,-1.4377,-1.4376,-1.4373,-1.4373,-1.4373,-1.4356,-1.4356,-1.4356,-1.4355,-1.4351,-1.4351,-1.4351,0,0,0,0,0,0,0,0,0,0,0,0,0,-1.437,-1.437,-1.4377,-1.4368,-1.4367,-1.4373,-1.4373,-1.4373,-1.4357,-1.4356,-1.4355,-1.4355,-1.4351,-1.4351,-1.4351,-1.4365,0,0,-1.4352,-1.4353,0,0,0,0,0,0,0,0,-1.437,-1.437,-1.4369,-1.4369,-1.4368,-1.4365,-1.4369,-1.437,-1.4357,-1.4361,-1.4355,-1.4355,-1.4356,-1.4356,-1.4356,-1.4365,-1.4364,-1.4352,-1.4353,-1.4353,-1.4353,0,0,0,0,0,0,0,-1.437,-1.437,-1.4375,-1.4369,-1.4368,-1.4364,-1.4364,-1.4369,-1.4361,-1.436,-1.4359,-1.4359,-1.4355,-1.4356,-1.4356,-1.4364,-1.4352,-1.4353,-1.4353,-1.4353,-1.4385,-1.4385,0,0,0,0,0,0,-1.4371,-1.437,-1.4375,-1.4375,-1.4367,-1.4365,-1.4364,-1.4366,-1.4361,-1.436,-1.4359,-1.4358,-1.4356,-1.4356,-1.4356,-1.4372,-1.4353,-1.4353,-1.4353,-1.4384,-1.4385,-1.4385,0,0,0,0,0,0,-1.4371,-1.4372,-1.4375,-1.4372,-1.4373,-1.4366,-1.4368,-1.4366,-1.4367,-1.4361,-1.4359,-1.4361,-1.4355,-1.4355,-1.4363,-1.4371,-1.4353,-1.4354,-1.4383,-1.4384,-1.4385,-1.4404,0,0,0,0,0,0,-1.4371,-1.4372,-1.4377,-1.4373,-1.4373,-1.4383,-1.4368,-1.4367,-1.4368,-1.4366,-1.4362,-1.4361,-1.4355,-1.4363,-1.4363,-1.4372,-1.4354,-1.4383,-1.4384,-1.4385,-1.4402,-1.4405,-1.4408,0,0,0,0,0,-1.4371,-1.4382,-1.4377,-1.4378,-1.4379,-1.4383,-1.4383,-1.4376,-1.4368,-1.4373,-1.437,-1.4361,-1.437,-1.4363,-1.4364,-1.4373,-1.4382,-1.4383,-1.4385,-1.4401,-1.4405,-1.4408,0,0,0,0,0,0,-1.4387,-1.4381,-1.4376,-1.4386,-1.4385,-1.438,-1.4386,-1.438,-1.4381,-1.4379,-1.437,-1.4369,-1.4379,-1.4376,-1.4369,-1.4386,-1.4375,-1.4376,-1.4387,-1.439,-1.4393,-1.4393,-1.4354,0,0,0,0,0,-1.4392,-1.4396,-1.439,-1.44,-1.44,-1.4393,-1.4395,-1.4389,-1.4388,-1.4388,-1.4384,-1.4383,-1.4386,-1.4388,-1.439,-1.4402,-1.4401,-1.4408,-1.4411,-1.4413,-1.4415,-1.4421,-1.4425,-1.439,-1.439,-1.439,0,0,-1.4401,-1.4399,-1.4402,-1.4403,-1.4402,-1.4406,-1.4393,-1.4398,-1.4401,-1.4388,-1.4396,-1.4393,-1.4392,-1.4402,-1.4406,-1.44,-1.4424,-1.4415,-1.4417,-1.4417,-1.4423,-1.4426,-1.4429,-1.4391,-1.4391,-1.4391,0,0,-1.4421,-1.442,-1.4428,-1.4427,-1.4426,-1.4421,-1.4423,-1.442,-1.4418,-1.4425,-1.4416,-1.4419,-1.4424,-1.4424,-1.4424,-1.4445,-1.4438,-1.4446,-1.446,-1.4467,-1.4469,-1.4472,-1.448,-1.4482,-1.4448,-1.4448,-1.4448,0,-1.4434,-1.444,-1.4433,-1.4439,-1.444,-1.4429,-1.4437,-1.4436,-1.4436,-1.4437,-1.443,-1.4437,-1.4435,-1.4445,-1.445,-1.4451,-1.4453,-1.4446,-1.447,-1.4472,-1.4474,-1.4481,-1.4484,-1.4449,-1.4449,-1.4449,-1.4448,0,-1.4455,-1.446,-1.4467,-1.4467,-1.4469,-1.4476,-1.4469,-1.4472,-1.4467,-1.4463,-1.4471,-1.4469,-1.4471,-1.4473,-1.4467,-1.4482,-1.4479,-1.4471,-1.446,-1.4478,-1.4485,-1.4488,-1.445,-1.445,-1.445,-1.4449,0,0,-1.4485,-1.4481,-1.4484,-1.4484,-1.4482,-1.4486,-1.4493,-1.4495,-1.4497,-1.4498,-1.4503,-1.4508,-1.4501,-1.4502,-1.4496,-1.4502,-1.452,-1.4494,-1.4494,-1.4499,-1.4537,-1.4542,-1.4546,-1.4515,-1.4515,-1.4516,-1.4537,0,-1.4504,-1.4516,-1.451,-1.4522,-1.4527,-1.4517,-1.4523,-1.4522,-1.4519,-1.4523,-1.452,-1.4523,-1.4514,-1.4514,-1.452,-1.4517,-1.4527,-1.4515,-1.452,-1.452,-1.4521,-1.4549,-1.4555,-1.4575,-1.4539,-1.454,-1.454,0,-1.4529,-1.453,-1.4543,-1.4541,-1.4543,-1.4548,-1.455,-1.4553,-1.4553,-1.455,-1.4552,-1.4545,-1.4552,-1.4541,-1.455,-1.4542,-1.4544,-1.4543,-1.4543,-1.4544,-1.4531,-1.455,-1.4581,-1.4584,-1.4544,-1.4544,-1.4544,0,-1.4549,-1.4555,-1.4563,-1.4564,-1.4561,-1.4566,-1.4565,-1.4564,-1.4566,-1.4567,-1.4569,-1.4571,-1.4572,-1.4574,-1.4569,-1.4561,-1.4579,-1.4568,-1.4577,-1.4578,-1.4581,-1.4581,-1.4613,-1.4583,-1.4583,-1.4583,-1.4583,0,-1.4572,-1.458,-1.4573,-1.4578,-1.4587,-1.458,-1.459,-1.4588,-1.4587,-1.4592,-1.4583,-1.4588,-1.4581,-1.4585,-1.458,-1.4589,-1.459,-1.4588,-1.4587,-1.4589,-1.4589,-1.459,-1.4588,-1.4583,-1.4583,-1.4583,-1.4583,0,-1.4597,-1.4592,-1.4601,-1.4598,-1.4597,-1.4604,-1.4602,-1.4607,-1.4604,-1.461,-1.4611,-1.4606,-1.4611,-1.4606,-1.461,-1.4607,-1.4619,-1.4615,-1.4619,-1.4618,-1.4628,-1.4628,-1.4662,-1.4666,-1.4633,-1.4633,-1.4633,0,-1.4611,-1.4618,-1.4616,-1.4619,-1.4618,-1.4623,-1.4625,-1.4618,-1.4621,-1.4621,-1.4626,-1.463,-1.4633,-1.4641,-1.4637,-1.4641,-1.4637,-1.4649,-1.4638,-1.464,-1.4638,-1.4638,-1.4638,-1.4652,-1.4652,-1.4652,-1.4653,0,-1.4638,-1.4636,-1.4639,-1.4642,-1.4645,-1.4647,-1.4648,-1.465,-1.4644,-1.4647,-1.4652,-1.4654,-1.4658,-1.4662,-1.4665,-1.4664,-1.4657,-1.4656,-1.4659,-1.4661,-1.4663,-1.4662,-1.4625,-1.4655,-1.4655,-1.4655,-1.4655,-1.4655,-1.4659,-1.4664,-1.4664,-1.4668,-1.4668,-1.467,-1.4674,-1.4672,-1.4676,-1.4679,-1.4675,-1.4681,-1.4681,-1.4683,-1.4683,-1.4688,-1.4683,-1.4687,-1.4687,-1.4688,-1.469,-1.4662,-1.4688,-1.4688,-1.4688,-1.4688,-1.4688,0,-1.4686,-1.4685,-1.4689,-1.4691,-1.4694,-1.4688,-1.4689,-1.4692,-1.4698,-1.4698,-1.4701,-1.4707,-1.4711,-1.4709,-1.4712,-1.4716,-1.4713,-1.4718,-1.4717,-1.4717,-1.4694,-1.4692,-1.472,-1.472,-1.472,-1.472,-1.472,-1.472,-1.47,-1.4709,-1.4706,-1.4716,-1.4715,-1.4721,-1.4722,-1.4723,-1.4724,-1.473,-1.4734,-1.4732,-1.4732,-1.4735,-1.4739,-1.4738,-1.474,-1.4745,-1.4743,-1.4722,-1.4719,-1.4716,-1.4713,-1.4745,-1.4745,-1.4766,-1.4766,-1.4766]},{"header":{"parameterUnit":"m.s-1","parameterCategory":1,"la1":30.2991,"la2":30.254,"lo1":-89.0895,"lo2":-89.0444,"dy":0.0017,"dx":0.0017,"nx":28,"ny":28,"refTime":"2024-05-08T21:00:00:Z","depth":0,"parameterNumber":3,"parameterNumberName":"V-component_of_WINDS"},"data":[0,0,0,0,0,0,0,0,0,0,0,0,0,0,0,0,0,0,0,0,0,0,0,0,0,0,0,0,0,0,0,0,0,0,0,0,0,0,0,0,0,0,0,0,0,0,0,0,0,0,0,0,0,0,0,0,0,0,5.4333,5.4334,0,5.4411,5.4412,5.4413,5.441,5.4409,5.4408,5.4407,5.4485,5.4488,5.4491,0,0,0,0,0,0,0,0,0,0,0,0,0,5.4181,5.4184,5.4333,5.4334,5.4335,5.4411,5.4412,5.4413,5.4411,5.4409,5.4408,5.4407,5.4484,5.4487,5.4491,0,0,0,0,0,0,0,0,0,0,0,0,0,5.4252,5.4184,5.4332,5.4343,5.4344,5.4411,5.4412,5.4413,5.4411,5.4409,5.4408,5.4406,5.4483,5.4487,5.4492,5.4552,0,0,5.4506,5.4508,0,0,0,0,0,0,0,0,5.4248,5.4257,5.434,5.4342,5.4344,5.4399,5.4387,5.446,5.4411,5.4385,5.4407,5.4405,5.4457,5.4464,5.4482,5.4556,5.4559,5.4506,5.4509,5.4511,5.4512,0,0,0,0,0,0,0,5.4243,5.4254,5.4363,5.4341,5.4344,5.4343,5.4351,5.4401,5.4429,5.4388,5.4388,5.4397,5.4458,5.4478,5.4484,5.456,5.4506,5.451,5.4513,5.4515,5.469,5.4691,0,0,0,0,0,0,5.4236,5.425,5.4361,5.4366,5.4291,5.4347,5.4356,5.4383,5.4429,5.4434,5.4398,5.4397,5.4471,5.4479,5.4487,5.4562,5.4511,5.4515,5.4518,5.4688,5.469,5.4692,0,0,0,0,0,0,5.4233,5.4246,5.4358,5.4308,5.4322,5.4352,5.4381,5.4385,5.4405,5.4437,5.4442,5.4413,5.447,5.448,5.4536,5.4564,5.4517,5.4521,5.4685,5.4688,5.4691,5.4712,0,0,0,0,0,0,5.4228,5.4245,5.4268,5.4308,5.4325,5.4407,5.4383,5.4388,5.4413,5.4412,5.4452,5.4457,5.4469,5.453,5.4541,5.457,5.4525,5.4683,5.4687,5.469,5.4709,5.4715,5.472,0,0,0,0,0,5.4223,5.4269,5.4269,5.4282,5.4354,5.4408,5.4417,5.4431,5.4415,5.4439,5.446,5.4456,5.456,5.4535,5.4548,5.4579,5.4681,5.4686,5.469,5.4706,5.4714,5.472,0,0,0,0,0,0,5.4229,5.4275,5.4275,5.4336,5.4368,5.4408,5.4438,5.4438,5.4475,5.4472,5.4487,5.4496,5.4553,5.4571,5.4543,5.4641,5.4619,5.4626,5.4627,5.4634,5.464,5.4634,5.4529,0,0,0,0,0,5.4238,5.4279,5.4316,5.4366,5.4383,5.4408,5.4431,5.444,5.4473,5.4487,5.4512,5.4544,5.4584,5.461,5.4649,5.4712,5.4721,5.474,5.4745,5.475,5.4756,5.4792,5.4801,5.4706,5.4706,5.4706,0,0,5.4256,5.4286,5.431,5.4368,5.4394,5.4436,5.4419,5.4463,5.4494,5.4493,5.4548,5.4568,5.4605,5.4666,5.4694,5.4683,5.4784,5.4755,5.4759,5.4762,5.4798,5.4807,5.4815,5.4709,5.4708,5.4708,0,0,5.4311,5.4337,5.4383,5.441,5.4451,5.4468,5.4479,5.4519,5.4532,5.4588,5.4589,5.4626,5.4695,5.4722,5.4745,5.4813,5.4811,5.4825,5.4855,5.4891,5.4899,5.4905,5.4931,5.4939,5.4831,5.4831,5.4831,0,5.4328,5.4391,5.4406,5.4452,5.4478,5.4481,5.4528,5.4553,5.4604,5.4622,5.461,5.4698,5.4723,5.4791,5.4808,5.4826,5.4839,5.482,5.4896,5.4903,5.491,5.4934,5.4944,5.4833,5.4832,5.4832,5.4832,0,5.4411,5.4455,5.4487,5.4538,5.4568,5.4613,5.4636,5.4664,5.467,5.4689,5.4747,5.4778,5.4824,5.484,5.4846,5.491,5.4902,5.4893,5.4871,5.492,5.4943,5.4953,5.4835,5.4834,5.4834,5.4833,0,0,5.4469,5.4531,5.4542,5.4566,5.4613,5.4647,5.4693,5.474,5.4764,5.48,5.484,5.4899,5.4892,5.4918,5.4927,5.4958,5.5012,5.4946,5.4947,5.4957,5.5086,5.5093,5.5103,5.5012,5.5013,5.5015,5.5083,0,5.453,5.4613,5.463,5.4702,5.4744,5.4749,5.479,5.4823,5.4842,5.488,5.49,5.4943,5.4929,5.4945,5.4976,5.4999,5.5038,5.4994,5.5049,5.5051,5.5039,5.5115,5.5122,5.5185,5.5092,5.5094,5.5095,0,5.461,5.465,5.4727,5.477,5.4788,5.4825,5.487,5.4906,5.4944,5.4956,5.4986,5.4993,5.5042,5.5018,5.5087,5.5057,5.508,5.5095,5.5098,5.5103,5.5075,5.5123,5.5205,5.5215,5.5109,5.5108,5.5107,0,5.4647,5.4719,5.4775,5.4796,5.4847,5.4873,5.4895,5.4932,5.496,5.4999,5.5017,5.5061,5.5086,5.512,5.5138,5.5119,5.5206,5.5183,5.5217,5.5217,5.5235,5.5233,5.5322,5.525,5.525,5.5249,5.5249,0,5.4712,5.4759,5.4793,5.4827,5.4881,5.49,5.4953,5.4975,5.5008,5.5047,5.5053,5.509,5.5112,5.5152,5.5167,5.5222,5.5232,5.5244,5.5247,5.5243,5.5242,5.5258,5.5255,5.5252,5.5251,5.5251,5.525,0,5.4761,5.4786,5.4848,5.4892,5.4905,5.4942,5.498,5.5014,5.5034,5.5084,5.5097,5.5128,5.5175,5.5197,5.5255,5.5266,5.5329,5.5329,5.5316,5.5318,5.5351,5.5348,5.5453,5.5469,5.5386,5.5387,5.5387,0,5.4802,5.4838,5.4888,5.4915,5.4939,5.4983,5.5012,5.5032,5.5062,5.511,5.5138,5.5187,5.5226,5.5302,5.533,5.5375,5.5376,5.541,5.5383,5.5379,5.5378,5.5375,5.538,5.5415,5.5416,5.5416,5.5417,0,5.4871,5.4882,5.4923,5.4971,5.5005,5.5043,5.508,5.5102,5.5128,5.5162,5.5211,5.5242,5.5303,5.5351,5.5399,5.5422,5.5424,5.5426,5.5436,5.5433,5.5424,5.543,5.533,5.5423,5.5422,5.5422,5.5422,5.5421,5.4917,5.4951,5.4992,5.5039,5.5069,5.5104,5.5139,5.5164,5.5206,5.5258,5.5268,5.5321,5.536,5.5425,5.545,5.5492,5.5483,5.5498,5.5502,5.5505,5.5508,5.5418,5.55,5.55,5.55,5.55,5.55,0,5.4987,5.5015,5.5058,5.511,5.5148,5.5148,5.519,5.5221,5.5268,5.5304,5.5344,5.5402,5.5449,5.5482,5.553,5.5557,5.556,5.5569,5.5567,5.5573,5.5512,5.5498,5.5567,5.5567,5.5567,5.5567,5.5567,5.5567,5.5028,5.5086,5.5102,5.5176,5.5203,5.5256,5.5279,5.5312,5.5342,5.5406,5.5446,5.5468,5.5503,5.5554,5.5598,5.5606,5.5624,5.5634,5.5642,5.5584,5.5577,5.557,5.5558,5.5637,5.5637,5.57,5.57,5.5701]}]]